Asheville, NC

1:29 PM EDT on October 20, 2019 (GMT -0400)
Asheville Regional

Weather History for KAVL - September, 2019

Change the Weather History Date:

Wednesday, September 18, 2019

  Actual Average Record
Temperature  
Mean Temperature 70 °F 66 °F  
Max Temperature 74 °F 76 °F 93 °F (1896)
Min Temperature 65 °F 55 °F 40 °F (1984)
Degree Days  
Heating Degree Days 0 2  
Month to date heating degree days 0 13  
Since 1 July heating degree days 0 15  
Cooling Degree Days 5 3  
Month to date cooling degree days 185 76  
Year to date cooling degree days 1191 833  
Growing Degree Days 17 (Base 50)    
Moisture  
Dew Point 61 °F    
Average Humidity 74    
Maximum Humidity 87    
Minimum Humidity 61    
Precipitation  
Precipitation 0.01 in 0.13 in 3.28 in (2012)
Month to date precipitation 0.40 2.38  
Year to date precipitation 42.11 33.99  
Sea Level Pressure  
Sea Level Pressure 30.12 in    
Wind  
Wind Speed 5 mph (SSE)    
Max Wind Speed 12 mph    
Max Gust Speed 17 mph    
Visibility 9 miles    
Events Rain    
T = Trace of Precipitation, MM = Missing Value Source: NWS Daily Summary

Daily Weather History Graph

Daily Weather History Graph

Search for Another Location

Airport or City:

Astronomy

Sep. 18, 2019 Rise Set
Actual Time 7:14 AM EDT 7:33 PM EDT
Civil Twilight 6:49 AM EDT 7:58 PM EDT
Nautical Twilight 6:19 AM EDT 8:28 PM EDT
Astronomical Twilight 5:49 AM EDT 8:58 PM EDT
Moon 10:15 PM EDT (9/18) 11:09 AM EDT (9/18)
Length of Visible Light 13h 09m
Length of Day
12h 18m
Waning Gibbous, 82% of the Moon is Illuminated
Sep 18
Waning Gibbous
Sep 21
Last Quarter
Sep 28
New
Oct 5
First Quarter
Oct 13
Full

Hourly Weather History & Observations

Time (EDT) Temp. Dew Point Humidity Pressure Visibility Wind Dir Wind Speed Gust Speed Precip Events Conditions
12:54 AM 73.9 °F 64.0 °F 71% 30.01 in 10.0 mi Calm Calm - N/A   Partly Cloudy
1:54 AM 73.0 °F 64.9 °F 76% 30.03 in 10.0 mi Calm Calm - N/A   Mostly Cloudy
2:54 AM 73.0 °F 64.0 °F 73% 30.03 in 10.0 mi SSE 4.6 mph - N/A   Overcast
3:37 AM 73.0 °F 64.0 °F 73% 30.13 in 10.0 mi SSE 5.8 mph - N/A   Overcast
3:44 AM 73.0 °F 64.0 °F 73% 30.13 in 10.0 mi SE 5.8 mph - N/A   Overcast
3:54 AM 73.0 °F 64.0 °F 73% 30.03 in 10.0 mi ESE 4.6 mph - N/A   Overcast
4:06 AM 72.0 °F 64.0 °F 76% 30.13 in 10.0 mi SE 4.6 mph - N/A   Overcast
4:54 AM 72.0 °F 64.0 °F 76% 30.04 in 10.0 mi Variable 3.5 mph - N/A   Overcast
5:54 AM 71.1 °F 64.0 °F 78% 30.05 in 10.0 mi SE 5.8 mph - N/A   Overcast
6:54 AM 70.0 °F 63.0 °F 78% 30.06 in 10.0 mi SE 8.1 mph - N/A   Overcast
7:37 AM 69.1 °F 63.0 °F 81% 30.16 in 10.0 mi SSE 3.5 mph - N/A   Overcast
7:54 AM 69.1 °F 63.0 °F 81% 30.08 in 10.0 mi SSE 4.6 mph - N/A   Overcast
8:54 AM 69.1 °F 63.0 °F 81% 30.09 in 10.0 mi Variable 5.8 mph - N/A   Overcast
9:54 AM 68.0 °F 62.1 °F 81% 30.11 in 10.0 mi SE 6.9 mph - N/A   Overcast
10:09 AM 66.9 °F 63.0 °F 87% 30.19 in 8.0 mi SSE 5.8 mph - 0.00 in Rain Light Rain
10:54 AM 66.9 °F 62.1 °F 84% 30.12 in 8.0 mi SSE 6.9 mph - 0.00 in   Overcast
11:44 AM 64.9 °F 62.1 °F 90% 30.20 in 2.5 mi South 9.2 mph - 0.00 in   Overcast
11:54 AM 64.9 °F 62.1 °F 90% 30.13 in 2.5 mi South 9.2 mph - 0.01 in   Overcast
12:00 PM 64.9 °F 63.0 °F 93% 30.20 in 3.0 mi South 10.4 mph - N/A   Overcast
12:42 PM 64.9 °F 61.0 °F 87% 30.21 in 9.0 mi SSE 9.2 mph - N/A   Overcast
12:54 PM 64.9 °F 61.0 °F 87% 30.14 in 10.0 mi South 8.1 mph - N/A   Overcast
1:54 PM 66.9 °F 54.0 °F 63% 30.14 in 8.0 mi Variable 4.6 mph - N/A   Overcast
2:01 PM 66.9 °F 55.0 °F 66% 30.21 in 10.0 mi South 8.1 mph - N/A   Overcast
2:54 PM 69.1 °F 55.0 °F 61% 30.13 in 10.0 mi SSE 9.2 mph - N/A   Overcast
3:54 PM 68.0 °F 57.0 °F 68% 30.13 in 10.0 mi ESE 6.9 mph - N/A   Overcast
4:54 PM 69.1 °F 57.0 °F 65% 30.12 in 10.0 mi SE 6.9 mph - N/A   Overcast
5:54 PM 69.1 °F 57.9 °F 68% 30.12 in 10.0 mi Calm Calm - N/A   Overcast
6:04 PM 70.0 °F 57.9 °F 65% 30.18 in 10.0 mi Calm Calm - N/A   Overcast
6:54 PM 68.0 °F 57.9 °F 70% 30.12 in 10.0 mi Variable 3.5 mph - N/A   Overcast
7:54 PM 66.9 °F 57.9 °F 73% 30.13 in 10.0 mi ESE 4.6 mph - N/A   Overcast
8:54 PM 66.9 °F 57.9 °F 73% 30.14 in 10.0 mi SSE 3.5 mph - N/A   Overcast
9:10 PM 66.9 °F 59.0 °F 76% 30.21 in 10.0 mi Calm Calm - N/A   Overcast
9:54 PM 66.0 °F 59.0 °F 78% 30.16 in 10.0 mi Calm Calm - N/A   Overcast
10:54 PM 64.9 °F 59.0 °F 81% 30.18 in 10.0 mi South 3.5 mph - N/A   Overcast
11:54 PM 64.9 °F 59.0 °F 81% 30.19 in 10.0 mi Calm Calm - N/A   Overcast